This demonstration page uses our WeatherBlox Daily Observations layout. Learn more.

40.92945, -100.16068

Hourly Observations for March 21, 2015

Temp ( °F °C ) Dew Point ( °F °C ) Humidity (%) Winds ( mph kmh ) Pressure ( in mb ) Visibility ( mi km ) Precip ( " mm )
12:15 am 00:15 Clear 50 9.9 19 -7 30 30 Calm 30.09 1019 10 16.0934 N/A
12:35 am 00:35 Clear 48 8.8 19 -7.1 32 32 S 3 6 30.09 1019 10 16.0934 N/A
12:55 am 00:55 Clear 44 6.9 19 -7 37 37 Calm 30.15 1021 10 16.0934 N/A
1:15 am 01:15 Clear 40 4.2 19 -7.1 44 44 Calm 30.18 1022 10 16.0934 N/A
1:35 am 01:35 Clear 38 3.1 22 -5.7 53 53 Calm 30.18 1022 10 16.0934 N/A
1:55 am 01:55 Clear 38 3.1 22 -5.4 54 54 Calm 30.18 1022 10 16.0934 N/A
2:15 am 02:15 Clear 36 2.3 23 -4.9 59 59 NW 3 6 30.18 1022 10 16.0934 N/A
2:35 am 02:35 Clear 35 1.7 23 -4.8 62 62 Calm 30.18 1022 10 16.0934 N/A
2:55 am 02:55 Clear 35 1.4 23 -5 63 63 WNW 3 6 30.21 1023 10 16.0934 N/A
3:15 am 03:15 Clear 34 1 22 -5.6 62 62 N 6 9 30.21 1023 10 16.0934 N/A
3:35 am 03:35 Clear 34 1.2 22 -5.8 60 60 Calm 30.21 1023 10 16.0934 N/A
3:55 am 03:55 Clear 32 0 20 -6.7 61 61 NNE 5 7 30.21 1023 10 16.0934 N/A
4:15 am 04:15 Clear 32 0 21 -6 64 64 Calm 30.21 1023 10 16.0934 N/A
4:35 am 04:35 Clear 32 0 23 -5.1 69 69 N 3 6 30.21 1023 7 11.26538 N/A
4:55 am 04:55 Clear 31 -0.3 22 -5.3 69 69 Calm 30.21 1023 10 16.0934 N/A
5:15 am 05:15 Clear 33 0.6 24 -4.7 68 68 NE 3 6 30.21 1023 10 16.0934 N/A
5:35 am 05:35 Clear 40 4.2 28 -2.4 63 63 E 6 9 30.18 1022 10 16.0934 N/A
5:55 am 05:55 Clear 39 4 28 -2.1 65 65 E 8 13 30.18 1022 10 16.0934 N/A
6:15 am 06:15 Clear 40 4.2 29 -1.5 67 67 E 8 13 30.18 1022 10 16.0934 N/A
6:35 am 06:35 Clear 38 3.4 29 -1.5 71 71 E 6 9 30.18 1022 10 16.0934 N/A
6:55 am 06:55 Clear 38 3.2 30 -1.3 73 73 E 6 9 30.18 1022 10 16.0934 N/A
7:15 am 07:15 Clear 37 2.6 29 -1.5 75 75 E 5 7 30.21 1023 10 16.0934 N/A
7:35 am 07:35 Clear 38 3.1 31 -0.8 76 76 E 7 11 30.21 1023 10 16.0934 N/A
7:55 am 07:55 Sunny 36 2.2 30 -1.2 78 78 E 3 6 30.21 1023 10 16.0934 N/A
8:15 am 08:15 Sunny 37 2.6 30 -1 77 77 E 6 9 30.24 1024 10 16.0934 N/A
8:35 am 08:35 Sunny 38 3.3 31 -0.3 78 78 E 3 6 30.24 1024 10 16.0934 N/A
8:55 am 08:55 Sunny 41 4.8 32 0.1 72 72 E 5 7 30.24 1024 10 16.0934 N/A
9:15 am 09:15 Sunny 42 5.8 33 0.6 70 70 E 12 19 30.21 1023 10 16.0934 N/A
9:35 am 09:35 Sunny 45 7 34 1 66 66 E 12 19 30.21 1023 10 16.0934 N/A
9:55 am 09:55 Sunny 46 7.9 34 1.1 62 62 E 14 22 30.21 1023 10 16.0934 N/A
10:15 am 10:15 Sunny 47 8.5 34 1 60 60 ESE 14 22 30.18 1022 10 16.0934 N/A
10:35 am 10:35 Sunny 48 9.1 34 1 57 57 E 15 24 30.18 1022 10 16.0934 N/A
10:55 am 10:55 Sunny 50 10.2 34 0.9 53 53 ESE 14 22 30.18 1022 10 16.0934 N/A
11:15 am 11:15 Sunny 53 11.5 34 0.9 48 48 ESE 13 20 30.12 1020 10 16.0934 N/A
11:35 am 11:35 Sunny 54 12.4 34 0.9 46 46 ESE 14 22 30.12 1020 10 16.0934 N/A
11:55 am 11:55 Sunny 56 13.3 33 0.8 43 43 ESE 12 19 30.12 1020 10 16.0934 N/A
12:15 pm 12:15 Sunny 58 14.4 34 0.9 40 40 ESE 13 20 30.12 1020 10 16.0934 N/A
12:35 pm 12:35 Sunny 59 15.2 33 0.6 37 37 SE 12 19 30.06 1018 10 16.0934 N/A
12:55 pm 12:55 Sunny 62 16.6 32 0.2 33 33 SE 12 19 30.06 1018 10 16.0934 N/A
1:15 pm 13:15 Sunny 64 17.5 32 0.1 31 31 SE 12 19 30.03 1017 10 16.0934 N/A
1:35 pm 13:35 Sunny 65 18.4 32 0 29 29 ESE 12 19 30.03 1017 10 16.0934 N/A
1:55 pm 13:55 Sunny 67 19.3 33 0.3 28 28 SE 16 26 30 1016 10 16.0934 N/A
2:15 pm 14:15 Sunny 68 20.1 32 0.1 26 26 SSE 10 17 30 1016 10 16.0934 N/A
2:35 pm 14:35 Sunny 69 20.8 32 0 25 25 SSE 10 17 29.94 1014 10 16.0934 N/A
2:55 pm 14:55 Sunny 71 21.6 31 -0.7 23 23 S 14 22 29.94 1014 10 16.0934 N/A
3:15 pm 15:15 Sunny 72 22 29 -1.9 20 20 S 17 28 29.94 1014 10 16.0934 N/A
3:35 pm 15:35 Sunny 73 22.7 29 -1.9 19 19 S 18 30 29.94 1014 10 16.0934 N/A
3:55 pm 15:55 Sunny 73 22.5 29 -1.5 20 20 S 15 24 29.94 1014 10 16.0934 N/A
4:15 pm 16:15 Sunny 73 22.5 31 -0.6 22 22 S 14 22 29.94 1014 10 16.0934 N/A
4:35 pm 16:35 Sunny 73 22.5 31 -0.5 22 22 S 9 15 29.94 1014 10 16.0934 N/A
4:55 pm 16:55 Sunny 73 23 29 -1.4 20 20 S 14 22 29.91 1013 10 16.0934 N/A
5:15 pm 17:15 Sunny 74 23.3 27 -2.6 18 18 S 13 20 29.91 1013 10 16.0934 N/A
5:35 pm 17:35 Sunny 74 23.2 28 -2.4 18 18 SSW 10 17 29.91 1013 10 16.0934 N/A
5:55 pm 17:55 Sunny 73 22.9 28 -2.2 19 19 S 15 24 29.88 1012 10 16.0934 N/A
6:15 pm 18:15 Sunny 73 22.5 28 -2 19 19 SSE 12 19 29.88 1012 10 16.0934 N/A
6:35 pm 18:35 Sunny 72 22.2 30 -1.3 21 21 SSE 15 24 29.88 1012 10 16.0934 N/A
6:55 pm 18:55 Sunny 71 21.7 30 -1 22 22 S 10 17 29.88 1012 10 16.0934 N/A
7:15 pm 19:15 Sunny 70 21 30 -1 23 23 SSE 13 20 29.88 1012 10 16.0934 N/A
7:35 pm 19:35 Sunny 67 19.6 31 -0.7 26 26 SSE 10 17 29.88 1012 10 16.0934 N/A
7:55 pm 19:55 Clear 63 17.1 30 -1 29 29 SSE 10 17 29.91 1013 10 16.0934 N/A
8:15 pm 20:15 Clear 60 15.7 29 -1.4 31 31 SSE 10 17 29.94 1014 10 16.0934 N/A
8:35 pm 20:35 Clear 59 14.8 29 -1.8 32 32 SSE 9 15 29.94 1014 10 16.0934 N/A
8:55 pm 20:55 Clear 58 14.6 29 -1.8 33 33 SSE 8 13 29.94 1014 10 16.0934 N/A
9:15 pm 21:15 Clear 55 12.8 29 -1.9 36 36 SSE 9 15 29.94 1014 10 16.0934 N/A
9:35 pm 21:35 Clear 55 12.5 28 -2 37 37 SSE 9 15 29.94 1014 10 16.0934 N/A
9:55 pm 21:55 Clear 53 11.7 29 -1.8 39 39 SSE 9 15 29.97 1015 10 16.0934 N/A
10:15 pm 22:15 Clear 53 11.6 29 -1.9 39 39 SSE 10 17 29.97 1015 10 16.0934 N/A
10:35 pm 22:35 Clear 53 11.5 29 -1.7 40 40 SSE 9 15 29.97 1015 10 16.0934 N/A
10:55 pm 22:55 Clear 53 11.5 29 -1.7 40 40 SSE 10 17 29.97 1015 10 16.0934 N/A
11:15 pm 23:15 Clear 55 12.6 29 -1.7 37 37 S 14 22 29.94 1014 10 16.0934 N/A
11:35 pm 23:35 Clear 55 12.6 29 -1.6 38 38 S 15 24 29.94 1014 10 16.0934 N/A
11:55 pm 23:55 Clear 55 12.7 29 -1.8 37 37 S 14 22 29.94 1014 10 16.0934 N/A

Powered by AerisWeather